FW7644 Weather Reports


time (UTC)temp
C
wind
direction
speed
KPH
gust
KPH
rain 1hr
cm
rain 24hr
cm
rain mn
cm
humidity
%
barometer
mb
20260901175906 21 0.0 0.0 0.00 4.01 0.41 58 1014.3
20260901175404 21 0.0 0.0 0.00 4.01 0.41 56 1014.4
20260901174903 23 0.0 0.0 0.00 4.01 0.41 51 1014.3
20260901174401 23 0.0 0.0 0.00 4.01 0.41 51 1014.2
20260901173900 23 0.0 0.0 0.00 4.01 0.41 51 1014.2
20260901173358 22 0.0 0.0 0.00 4.01 0.41 51 1014.2
20260901172856 23 0.0 0.0 0.00 4.01 0.41 53 1014.1
20260901172354 22 0.0 0.0 0.00 4.01 0.41 53 1014.1
20260901171853 22 0.0 0.0 0.00 4.01 0.41 54 1014.2
20260901171351 22 0.0 0.0 0.00 4.01 0.41 53 1014.3
20260901170849 23 0.0 0.0 0.00 4.01 0.41 51 1014.2
20260901170347 22 0.0 0.0 0.00 4.01 0.41 52 1014.2
20260901165846 22 0.0 0.0 0.00 4.01 0.41 53 1014.2
20260901165344 22 0.0 0.0 0.00 4.01 0.41 56 1014.2
20260901164843 22 0.0 0.0 0.00 4.01 0.41 54 1014.2
20260901164341 21 0.0 0.0 0.00 4.01 0.41 56 1014.3
20260901163839 22 0.0 0.0 0.00 4.01 0.41 56 1014.4
20260901163337 22 0.0 0.0 0.00 4.01 0.41 57 1014.4
20260901162835 23 0.0 0.0 0.00 4.01 0.41 56 1014.5
20260901162333 21 0.0 0.0 0.00 4.01 0.41 60 1014.6
20260901161831 21 0.0 0.0 0.00 4.01 0.41 60 1014.5
20260901161329 21 0.0 0.0 0.00 4.01 0.41 61 1014.6
20260901160827 23 0.0 0.0 0.00 4.01 0.41 58 1014.5
20260901160326 22 0.0 0.0 0.00 4.01 0.41 60 1014.6
20260901155824 21 0.0 0.0 0.00 4.01 0.41 62 1014.4
20260901155322 20 0.0 0.0 0.00 4.01 0.41 65 1014.4
20260901154820 21 0.0 0.0 0.00 4.01 0.41 65 1014.3
20260901154319 21 0.0 0.0 0.00 4.01 0.41 68 1014.2
20260901153817 20 0.0 0.0 0.00 4.01 0.41 67 1014.3
20260901153316 21 0.0 0.0 0.00 4.01 0.41 65 1014.3
20260901152814 20 0.0 0.0 0.00 4.01 0.41 65 1014.3
20260901152313 20 0.0 0.0 0.00 4.01 0.41 70 1014.2
20260901151811 19 0.0 0.0 0.00 4.01 0.41 71 1014.1
20260901151309 18 0.0 0.0 0.00 4.01 0.41 72 1014.2
20260901150808 18 0.0 0.0 0.00 4.01 0.41 75 1014.4
20260901150306 18 0.0 0.0 0.00 4.01 0.41 77 1014.3
20260901145805 18 0.0 0.0 0.00 4.01 0.41 78 1014.4
20260901145306 18 0.0 0.0 0.00 4.01 0.41 77 1014.3
20260901144802 17 0.0 0.0 0.00 4.01 0.41 80 1014.2
20260901144300 18 0.0 0.0 0.00 4.01 0.41 80 1014.2
20260901143759 18 0.0 0.0 0.00 4.01 0.41 83 1014.3
20260901143257 17 0.0 0.0 0.00 4.01 0.41 84 1014.4
20260901142755 17 0.0 0.0 0.00 4.01 0.41 86 1014.6
20260901142253 17 0.0 0.0 0.00 4.01 0.41 87 1014.7
20260901141751 17 0.0 0.0 0.00 4.01 0.41 90 1014.7
20260901141249 16 0.0 0.0 0.00 4.01 0.41 92 1014.7
20260901140748 16 0.0 0.0 0.00 4.01 0.41 93 1014.7
20260901140246 16 0.0 0.0 0.00 4.01 0.41 97 1014.6
20260901135744 16 0.0 0.0 0.00 4.14 0.41 99 1014.6
20260901135242 16 0.0 0.0 0.00 4.14 0.41 99 1014.7
20260901134741 16 0.0 0.0 0.03 4.14 0.41 99 1014.5
20260901134239 16 0.0 0.0 0.03 4.14 0.41 99 1014.4
20260901133737 16 0.0 0.0 0.03 4.14 0.41 99 1014.3
20260901133235 17 0.0 0.0 0.03 4.14 0.41 99 1014.1
20260901132733 17 0.0 0.0 0.03 4.14 0.41 99 1014.1
20260901132231 17 0.0 0.0 0.03 4.14 0.41 99 1014.1
20260901131730 17 0.0 0.0 0.03 4.14 0.41 99 1014.2
20260901131228 17 0.0 0.0 0.03 4.14 0.41 99 1014.1
20260901130726 17 0.0 0.0 0.03 4.14 0.41 99 1013.9
20260901130224 16 0.0 0.0 0.03 4.14 0.41 99 1013.9
20260901125721 16 0.0 0.0 0.03 4.14 0.41 99 1013.7
20260901125219 16 0.0 0.0 0.03 4.14 0.41 99 1013.5
20260901124717 17 0.0 0.0 0.00 4.11 0.38 99 1013.4
20260901124216 17 0.0 0.0 0.00 4.11 0.38 99 1013.3
20260901123714 17 0.0 0.0 0.00 4.11 0.38 99 1013.4
20260901123212 17 0.0 0.0 0.00 4.11 0.38 99 1013.3
20260901122709 17 0.0 0.0 0.00 4.11 0.38 99 1013.5
20260901122207 16 0.0 0.0 0.00 4.11 0.38 99 1013.5
20260901121705 16 0.0 0.0 0.00 4.11 0.38 99 1013.8
20260901121203 16 0.0 0.0 0.00 4.11 0.38 99 1013.5
20260901120701 16 0.0 0.0 0.00 4.11 0.38 99 1013.5
20260901120159 16 0.0 0.0 0.00 4.11 0.38 99 1013.4
20260901115657 16 0.0 0.0 0.00 4.11 0.38 99 1013.4
20260901115155 16 0.0 0.0 0.00 4.11 0.38 99 1013.0
20260901114652 15 0.0 0.0 0.00 4.11 0.38 99 1012.9
20260901114151 15 0.0 0.0 0.00 4.11 0.38 99 1012.9
20260901113649 15 0.0 0.0 0.00 4.11 0.38 99 1013.0
20260901113146 15 0.0 0.0 0.00 4.11 0.38 99 1011.8
20260901112645 15 0.0 0.0 0.00 4.11 0.38 99 1012.5
20260901112143 15 0.0 0.0 0.00 4.11 0.38 99 1012.5
20260901111642 15 0.0 0.0 0.00 4.11 0.38 99 1012.6
20260901111140 15 0.0 0.0 0.00 4.11 0.38 99 1012.6
20260901110639 15 0.0 0.0 0.00 4.11 0.38 99 1012.5
20260901110137 14 0.0 0.0 0.00 4.11 0.38 99 1012.2
20260901105636 14 0.0 0.0 0.00 4.11 0.38 99 1012.3
20260901105134 14 0.0 0.0 0.00 4.11 0.38 99 1012.4
20260901104632 14 0.0 0.0 0.00 4.11 0.38 99 1012.2
20260901104131 14 0.0 0.0 0.00 4.11 0.38 99 1012.0
20260901103629 13 0.0 0.0 0.00 4.11 0.38 99 1012.0
20260901103128 13 0.0 0.0 0.00 4.11 0.38 99 1011.8
20260901102626 13 0.0 0.0 0.00 4.11 0.38 99 1011.9
20260901102124 13 0.0 0.0 0.00 4.11 0.38 99 1011.7
20260901101623 13 0.0 0.0 0.00 4.11 0.38 99 1011.7
20260901101121 13 0.0 0.0 0.00 4.11 0.38 99 1011.6
20260901100620 13 0.0 0.0 0.00 4.11 0.38 99 1011.8
20260901100118 13 0.0 0.0 0.00 4.11 0.38 99 1011.8
20260901095616 13 0.0 0.0 0.00 4.11 0.38 99 1011.7
20260901095114 13 0.0 0.0 0.00 4.11 0.38 99 1011.6
20260901094613 13 0.0 0.0 0.00 4.11 0.38 99 1011.6
20260901094111 13 0.0 0.0 0.00 4.11 0.38 99 1011.4
20260901093610 13 0.0 0.0 0.00 4.11 0.38 99 1011.2
20260901093108 13 0.0 0.0 0.00 4.11 0.38 99 1011.1
20260901092607 13 0.0 0.0 0.00 4.11 0.38 99 1011.1
20260901092105 13 0.0 0.0 0.00 4.11 0.38 99 1011.0
20260901091604 13 0.0 0.0 0.00 4.11 0.38 99 1010.9
20260901091102 13 0.0 0.0 0.00 4.11 0.38 99 1010.9
20260901090601 13 0.0 0.0 0.00 4.11 0.38 99 1010.8
20260901090059 13 0.0 0.0 0.00 4.11 0.38 99 1010.8
20260901085558 13 0.0 0.0 0.00 4.11 0.38 99 1010.9
20260901085056 13 0.0 0.0 0.00 4.11 0.38 99 1011.0
20260901084554 12 0.0 0.0 0.00 4.11 0.38 99 1011.0
20260901084053 13 0.0 0.0 0.00 4.11 0.38 99 1010.9
20260901083551 13 0.0 0.0 0.00 4.11 0.38 99 1010.9
20260901083049 13 0.0 0.0 0.00 4.11 0.38 99 1010.8
20260901082548 12 0.0 0.0 0.00 4.11 0.38 99 1010.8
20260901082047 12 0.0 0.0 0.00 4.11 0.38 99 1010.8
20260901081545 12 0.0 0.0 0.00 4.11 0.38 99 1010.7
20260901081043 12 0.0 0.0 0.00 4.11 0.38 99 1010.6
20260901080542 12 0.0 0.0 0.00 4.11 0.38 99 1010.6
20260901080040 12 0.0 0.0 0.00 4.11 0.38 99 1010.5
20260901075539 12 0.0 0.0 0.00 4.11 0.38 99 1010.5
20260901075037 12 0.0 0.0 0.00 4.11 0.38 99 1010.4
20260901074536 12 0.0 0.0 0.00 4.11 0.38 99 1010.4
20260901074034 12 0.0 0.0 0.00 4.11 0.38 99 1010.5
20260901073533 12 0.0 0.0 0.00 4.11 0.38 99 1010.4
20260901073031 13 0.0 0.0 0.00 4.11 0.38 99 1010.6
20260901072530 13 0.0 0.0 0.00 4.11 0.38 99 1010.3
20260901072028 12 0.0 0.0 0.00 4.11 0.38 99 1010.4
20260901071527 13 0.0 0.0 0.00 4.11 0.38 99 1010.6
20260901071025 12 0.0 0.0 0.00 4.11 0.38 99 1010.7
20260901070524 13 0.0 0.0 0.00 4.11 0.38 99 1010.9
20260901070022 12 0.0 0.0 0.00 4.11 0.38 99 1011.0
20260901065520 13 0.0 0.0 0.00 4.11 0.38 99 1010.9
20260901065019 13 0.0 0.0 0.00 4.11 0.38 99 1010.8
20260901064517 13 0.0 0.0 0.00 4.11 0.38 99 1011.2
20260901064016 13 0.0 0.0 0.00 4.11 0.38 99 1011.1
20260901063514 13 0.0 0.0 0.00 4.11 0.38 99 1011.0
20260901063013 13 0.0 0.0 0.00 4.11 0.38 99 1011.2
20260901062511 13 0.0 0.0 0.00 4.11 0.38 99 1011.2
20260901062010 13 0.0 0.0 0.00 4.11 0.38 99 1011.4
20260901061509 13 0.0 0.0 0.00 4.11 0.38 99 1011.6
20260901061007 13 0.0 0.0 0.00 4.11 0.38 99 1011.8
20260901060506 13 0.0 0.0 0.00 4.11 0.38 99 1011.8
20260901060004 13 0.0 0.0 0.00 4.11 0.38 99 1012.1
20260901055503 13 0.0 0.0 0.00 4.11 0.38 99 1012.1
20260901055001 13 0.0 0.0 0.00 4.11 0.38 99 1012.0
20260901054500 13 0.0 0.0 0.00 4.11 0.38 99 1012.2
20260901053958 13 0.0 0.0 0.00 4.11 0.38 99 1012.2
20260901053457 13 0.0 0.0 0.00 4.11 0.38 99 1012.2
20260901052955 13 0.0 0.0 0.00 4.11 0.38 99 1012.2
20260901052454 13 0.0 0.0 0.00 4.11 0.38 99 1012.2
20260901051952 13 0.0 0.0 0.00 4.11 0.38 99 1012.2
20260901051451 13 0.0 0.0 0.00 4.11 0.38 99 1012.4
20260901050949 13 0.0 0.0 0.03 4.11 0.38 99 1012.5
20260901050448 13 0.0 0.0 0.03 4.11 0.38 99 1012.7
20260901045947 13 0.0 0.0 0.13 4.11 0.38 99 1013.0
20260901045446 13 0.0 0.0 0.13 4.11 0.38 99 1013.4
20260901044944 13 0.0 0.0 0.23 4.11 0.38 99 1013.5
20260901044443 13 0.0 0.0 0.23 4.11 0.38 99 1013.2
20260901043941 13 0.0 0.0 0.28 4.11 0.38 99 1013.5
20260901043440 13 0.0 0.0 0.28 4.11 0.38 99 1013.6
20260901042938 13 0.0 0.0 0.30 4.11 0.38 99 1013.3
20260901042437 13 0.0 0.0 0.30 4.11 0.38 99 1013.2
20260901041936 13 0.0 0.0 0.33 4.11 0.38 99 1013.3
20260901041434 13 0.0 0.0 0.33 4.11 0.38 99 1013.3
20260901040933 13 0.0 0.0 0.38 4.11 0.38 99 1013.3
20260901040431 13 0.0 0.0 0.38 4.11 0.38 99 1013.7
20260901035930 13 0.0 0.0 0.46 4.09 0.36 99 1015.8
20260901035429 13 0.0 0.0 0.43 4.06 0.33 99 1016.7
20260901034927 13 0.0 0.0 0.51 3.99 0.25 99 1017.4
20260901034425 13 0.0 0.0 0.43 3.94 0.18 99 1017.7
20260901033924 13 0.0 0.0 0.53 3.91 0.15 99 1017.5
20260901033422 13 0.0 0.0 0.51 3.89 0.13 99 1017.3
20260901032921 13 0.0 0.0 0.58 3.86 0.10 99 1017.1
20260901032419 13 0.0 0.0 0.56 3.84 0.08 99 1017.1
20260901031918 13 0.0 0.0 0.66 3.84 0.08 99 1016.9
20260901031416 13 0.0 0.0 0.64 3.81 0.05 99 1017.1
20260901030914 14 0.0 0.0 0.81 3.81 0.05 99 1016.8
20260901030413 14 0.0 0.0 0.79 3.78 0.03 99 1016.5
20260901025911 14 0.0 0.0 0.94 4.37 3.73 99 1016.5
20260901025410 14 0.0 0.0 0.89 4.32 3.68 99 1017.5
20260901024908 15 0.0 0.0 0.94 4.27 3.63 99 1017.8
20260901024406 15 0.0 0.0 0.89 4.22 3.58 99 1017.8
20260901023905 15 0.0 0.0 0.97 4.14 3.51 99 1017.6
20260901023403 15 0.0 0.0 0.89 4.06 3.43 99 1017.5
20260901022901 15 0.0 0.0 0.91 4.01 3.38 99 1017.5
20260901022400 15 0.0 0.0 0.86 3.96 3.33 99 1017.4
20260901021858 15 0.0 0.0 0.84 3.94 3.28 99 1017.0
20260901021356 15 0.0 0.0 0.79 3.89 3.23 99 1016.7
20260901020855 15 0.0 0.0 0.76 3.81 3.15 99 1016.7
20260901020354 15 0.0 0.0 0.69 3.73 3.07 99 1016.2
20260901015852 15 0.0 0.0 0.61 3.71 2.97 99 1015.7
20260901015351 15 0.0 0.0 0.48 3.58 2.84 99 1015.5
20260901014849 15 0.0 0.0 0.41 3.51 2.77 99 1015.6
20260901014347 15 0.0 0.0 0.36 3.45 2.72 99 1015.4
20260901013846 15 0.0 0.0 0.30 3.38 2.64 99 1015.4
20260901013345 15 0.0 0.0 0.25 3.33 2.59 99 1015.1
20260901012843 15 0.0 0.0 0.20 3.25 2.51 99 1015.5
20260901012341 15 0.0 0.0 0.15 3.20 2.46 99 1015.2
20260901011839 15 0.0 0.0 0.13 3.17 2.44 99 1014.7
20260901011338 15 0.0 0.0 0.13 3.17 2.44 99 1014.4
20260901010836 15 0.0 0.0 0.10 3.15 2.41 99 1014.4
20260901010334 15 0.0 0.0 0.10 3.15 2.41 99 1014.1
20260901005832 15 0.0 0.0 0.08 3.20 2.39 99 1014.3
20260901005330 15 0.0 0.0 0.05 3.17 2.39 99 1014.3
20260901004828 15 0.0 0.0 0.10 3.17 2.39 99 1013.9
20260901004326 15 0.0 0.0 0.10 3.17 2.39 99 1013.6
20260901003824 15 0.0 0.0 0.15 3.17 2.39 99 1013.8
20260901003323 15 0.0 0.0 0.15 3.17 2.39 99 1013.4
20260901002821 15 0.0 0.0 0.13 3.15 2.36 99 1014.1
20260901002318 15 0.0 0.0 0.13 3.15 2.36 99 1014.1
20260901001817 15 0.0 0.0 0.18 3.12 2.34 99 1014.2
20260901001315 15 0.0 0.0 0.18 3.12 2.34 99 1014.4
20260831235809 15 0.0 0.0 0.36 3.17 2.34 99 1014.6
20260831235308 15 0.0 0.0 0.36 3.17 2.34 99 1014.6
20260831234807 15 0.0 0.0 0.43 3.17 2.34 99 1014.2
20260831234305 15 0.0 0.0 0.41 3.15 2.31 99 1014.3
20260831233803 15 0.0 0.0 0.76 3.10 2.26 99 1014.1
20260831233301 15 0.0 0.0 0.74 3.07 2.24 99 1013.2
20260831232759 15 0.0 0.0 0.79 3.07 2.24 99 1012.5
20260831232258 15 0.0 0.0 0.79 3.07 2.24 99 1012.5
20260831231756 15 0.0 0.0 0.79 3.05 2.21 99 1012.6
20260831231254 15 0.0 0.0 0.79 3.02 2.18 99 1013.7
20260831230753 15 0.0 0.0 0.76 2.97 2.13 99 1014.9
20260831230251 15 0.0 0.0 0.71 2.92 2.08 99 1015.2
20260831225750 15 0.0 0.0 0.69 2.95 2.06 99 1015.3
20260831225248 15 0.0 0.0 0.64 2.90 2.01 99 1015.5
20260831224746 15 0.0 0.0 0.58 2.84 1.96 99 1015.5
20260831223749 15 0.0 0.0 0.48 2.74 1.85 99 1016.1
20260831223248 15 0.0 0.0 0.28 2.54 1.65 99 1016.6
20260831222746 15 0.0 0.0 0.08 2.36 1.45 99 1014.9
20260831222245 15 0.0 0.0 0.05 2.34 1.42 99 1014.2
20260831221743 15 0.0 0.0 0.05 2.34 1.42 99 1013.4
20260831221241 15 0.0 0.0 0.03 2.31 1.40 99 1013.6
20260831220739 15 0.0 0.0 0.03 2.31 1.40 99 1013.5
20260831220238 15 0.0 0.0 0.00 2.29 1.37 99 1013.5
20260831215736 15 0.0 0.0 0.00 2.57 1.37 99 1012.9
20260831215235 15 0.0 0.0 0.00 2.57 1.37 99 1012.7
20260831214733 15 0.0 0.0 0.00 2.57 1.37 99 1012.5
20260831214232 15 0.0 0.0 0.00 2.57 1.37 99 1012.4
20260831213730 15 0.0 0.0 0.00 2.57 1.37 99 1012.5
20260831213228 15 0.0 0.0 0.00 2.57 1.37 99 1012.6
20260831212726 15 0.0 0.0 0.00 2.57 1.37 99 1012.6
20260831212225 15 0.0 0.0 0.00 2.57 1.37 99 1012.6
20260831211723 15 0.0 0.0 0.00 2.57 1.37 99 1012.7
20260831211221 15 0.0 0.0 0.00 2.57 1.37 99 1012.6
20260831210720 15 0.0 0.0 0.00 2.57 1.37 99 1012.3
20260831210218 15 0.0 0.0 0.00 2.57 1.37 99 1011.9
20260831205716 15 0.0 0.0 0.00 2.97 1.37 99 1011.8
20260831205214 15 0.0 0.0 0.00 2.97 1.37 99 1012.0
20260831204712 15 0.0 0.0 0.00 2.97 1.37 99 1011.9
20260831204211 15 0.0 0.0 0.00 2.97 1.37 99 1012.2
20260831203709 15 0.0 0.0 0.00 2.97 1.37 99 1011.9
20260831203207 15 0.0 0.0 0.00 2.97 1.37 99 1012.1
20260831202705 15 0.0 0.0 0.00 2.97 1.37 99 1012.4
20260831202204 15 0.0 0.0 0.00 2.97 1.37 99 1012.5
20260831201702 16 0.0 0.0 0.00 2.97 1.37 99 1012.2
20260831201200 16 0.0 0.0 0.00 2.97 1.37 99 1012.2
20260831200658 16 0.0 0.0 0.03 2.97 1.37 99 1012.6
20260831200157 16 0.0 0.0 0.03 2.97 1.37 99 1012.7
20260831195655 16 0.0 0.0 0.03 3.15 1.37 99 1012.6
20260831195153 16 0.0 0.0 0.03 3.15 1.37 99 1012.5
20260831194651 16 0.0 0.0 0.03 3.15 1.37 99 1012.9
20260831194150 16 0.0 0.0 0.03 3.15 1.37 99 1012.8
20260831193648 16 0.0 0.0 0.03 3.15 1.37 99 1012.9
20260831193146 16 0.0 0.0 0.03 3.15 1.37 99 1013.3
20260831192645 16 0.0 0.0 0.03 3.15 1.37 99 1013.2
20260831192143 16 0.0 0.0 0.03 3.15 1.37 99 1013.3
20260831191641 15 0.0 0.0 0.05 3.15 1.37 99 1013.5
20260831191139 15 0.0 0.0 0.05 3.15 1.37 99 1013.6
20260831190638 15 0.0 0.0 0.13 3.15 1.37 99 1013.7
20260831190136 15 0.0 0.0 0.13 3.15 1.37 99 1013.9
20260831185634 15 0.0 0.0 0.15 3.38 1.35 99 1014.1
20260831185132 15 0.0 0.0 0.15 3.38 1.35 99 1014.6
20260831184630 15 0.0 0.0 0.25 3.38 1.35 99 1013.0
20260831184129 15 0.0 0.0 0.25 3.38 1.35 99 1012.2
20260831183627 15 0.0 0.0 0.30 3.38 1.35 99 1012.0
20260831183126 15 0.0 0.0 0.30 3.38 1.35 99 1011.8
20260831182624 15 0.0 0.0 0.30 3.38 1.35 99 1011.6
20260831182122 15 0.0 0.0 0.30 3.38 1.35 99 1011.3
20260831181620 15 0.0 0.0 0.74 3.38 1.35 99 1011.6
20260831181119 15 0.0 0.0 0.71 3.35 1.32 99 1012.8
20260831180617 15 0.0 0.0 1.17 3.33 1.30 99 1014.1
20260831180116 15 0.0 0.0 1.14 3.30 1.27 99 1015.4